Overview Statistics Trail Chart Weather Telemetry Raw packets
 

This is the latest recevied weather packets stored in our database for station/object K1NOT-WX. If no packets are shown the sender has not sent any weather packets the latest 10 day(s).

<< 6 7 8 9 10 11 12 >>
Time Temp. Humidity Pressure Rain* Wind** Luminosity Snow
1777579032 17.22° C 64% 1010.5 hPa 0 mm - - -
1777578132 18.33° C 62% 1010.5 hPa 0 mm - - -
1777577232 18.89° C 59% 1010.8 hPa 0 mm - - -
1777576332 17.78° C 64% 1010.8 hPa 0 mm - - -
1777575432 17.22° C 64% 1011.2 hPa 0 mm - - -
1777574532 17.78° C 61% 1010.8 hPa 0 mm - - -
1777573632 17.22° C 66% 1011.2 hPa 0 mm - - -
1777572732 19.44° C 60% 1011.2 hPa 0 mm - - -
1777571832 17.22° C 68% 1011.5 hPa 0 mm - - -
1777570932 17.22° C 67% 1011.8 hPa 0 mm - - -
1777570033 15.56° C 71% 1011.8 hPa 0 mm - - -
1777569133 14.44° C 74% 1012.2 hPa 0 mm - - -
1777568233 14.44° C 75% 1012.2 hPa 0 mm - - -
1777567333 14.44° C 74% 1012.2 hPa 0 mm - - -
1777566433 14.44° C 75% 1011.8 hPa 0 mm - - -
1777565533 16.11° C 69% 1012.2 hPa 0 mm - - -
1777564633 15.56° C 68% 1012.2 hPa 0 mm - - -
1777563733 15.56° C 69% 1012.5 hPa 0 mm - - -
1777562833 15.56° C 68% 1012.9 hPa 0 mm - - -
1777561933 16.11° C 65% 1012.5 hPa 0 mm - - -
1777561033 14.44° C 72% 1012.5 hPa 0 mm - - -
1777560133 13.33° C 73% 1012.9 hPa 0 mm - - -
1777559233 13.33° C 75% 1012.9 hPa 0 mm - - -
1777558333 11.67° C 79% 1012.5 hPa 0 mm - - -
1777557433 10.56° C 83% 1012.9 hPa 0 mm - - -

* Rain latest hour (hover to see other rain measurements)
** Current wind speed in m/s (hover to see current wind gust speed)